Terug naar catalogus

IRIDIUM 22

ActiefCommunicatiePO
NORAD 24907·PAYLOAD·🇺🇸 United States

Gelanceerd Aug 21, 1997 vanaf Vandenberg Space Force Base

Loading…

Volgende Passages (komende 24 uur)

TLE

VersSource: Space-Track

Epoch: Sep 14, 2026, 12:51 UTC

1 24907U 97043E   26257.53607842  .00000175  00000-0  53065-4 0  9998
2 24907  86.3909 283.5781 0002154  88.0207 272.1237 14.36291932521989

Volg IRIDIUM 22 in realtime met AllMySat

Download on the App Store